Weather History for West Plains, MO

Change the Weather History Date:

Thursday, November 8, 2012

  Actual Average Record
Temperature  
Mean Temperature 43 °F 50 °F  
Max Temperature 57 °F 61 °F 81 °F (1975)
Min Temperature 29 °F 39 °F 8 °F (1991)
Degree Days  
Heating Degree Days 22 15  
Month to date heating degree days 137 111  
Since 1 July heating degree days 505 414  
Cooling Degree Days 0 0  
Month to date cooling degree days 0 0  
Year to date cooling degree days 1739 1352  
Moisture  
Dew Point 33 °F    
Average Humidity 67    
Maximum Humidity 89    
Minimum Humidity 45    
Precipitation  
Precipitation 0.00 in 0.14 in 2.08 in (1979)
Month to date precipitation 0.31 1.11  
Year to date precipitation 28.57 39.11  
Sea Level Pressure  
Sea Level Pressure 30.17 in    
Wind  
Wind Speed 6 mph (SSE)    
Max Wind Speed 15 mph    
Max Gust Speed 18 mph    
Visibility 10 miles    
Events      
T = Trace of Precipitation, MM = Missing Value Source: NWS Daily Summary

Daily Weather History Graph

Daily Weather History Graph

Search for Another Location

Airport:

Trip Planner

Search our weather history database for the weather conditions in past years. The results will help you decide how hot, cold, wet, or windy it might be!

Date:

Astronomy

Nov. 08, 2012 Rise Set
Actual Time 6:39 AM CST 5:03 PM CST
Civil Twilight 6:11 AM CST 5:30 PM CST
Nautical Twilight 5:40 AM CST 6:01 PM CST
Astronomical Twilight 5:10 AM CST 6:31 PM CST
Moon 12:43 AM CST (11/8) 1:36 PM CST (11/8)
Length of Visible Light 11h 18m
Length of Day
10h 23m
Waning Crescent, 32% of the Moon is Illuminated
Nov 8
Waning Crescent
Nov 13
New
Nov 20
First Quarter
Nov 28
Full
Dec 6
Last Quarter

Hourly Weather History & Observations

Time (CST) Temp. Windchill Dew Point Humidity Pressure Visibility Wind Dir Wind Speed Gust Speed Precip Events Conditions
12:53 AM 30.0 °F - 27.0 °F 88% 30.19 in 10.0 mi Calm Calm - N/A   Clear
1:53 AM 30.0 °F - 27.0 °F 88% 30.21 in 9.0 mi Calm Calm - N/A   Clear
2:53 AM 28.9 °F - 26.1 °F 89% 30.21 in 10.0 mi Calm Calm - N/A   Clear
3:53 AM 30.0 °F - 26.1 °F 85% 30.21 in 10.0 mi Calm Calm - N/A   Clear
4:53 AM 30.9 °F - 26.1 °F 82% 30.22 in 10.0 mi Calm Calm - N/A   Clear
5:53 AM 32.0 °F - 27.0 °F 82% 30.22 in 10.0 mi Calm Calm - N/A   Clear
6:53 AM 33.1 °F - 28.9 °F 85% 30.23 in 10.0 mi Calm Calm - N/A   Clear
7:53 AM 39.0 °F 34.0 °F 33.1 °F 79% 30.25 in 10.0 mi SSE 6.9 mph - N/A   Clear
8:53 AM 43.0 °F 36.8 °F 35.1 °F 74% 30.25 in 10.0 mi South 11.5 mph - N/A   Clear
9:53 AM 46.9 °F - 34.0 °F 61% 30.24 in 10.0 mi South 12.7 mph 18.4 mph N/A   Clear
10:53 AM 50.0 °F - 35.1 °F 57% 30.22 in 10.0 mi South 11.5 mph - N/A   Clear
11:53 AM 52.0 °F - 36.0 °F 54% 30.19 in 10.0 mi SSE 9.2 mph - N/A   Clear
12:53 PM 55.0 °F - 35.1 °F 47% 30.15 in 10.0 mi SE 6.9 mph - N/A   Clear
1:53 PM 55.9 °F - 36.0 °F 47% 30.14 in 10.0 mi SSE 11.5 mph 17.3 mph N/A   Clear
2:53 PM 57.0 °F - 36.0 °F 45% 30.12 in 10.0 mi SE 9.2 mph - N/A   Clear
3:53 PM 57.0 °F - 36.0 °F 45% 30.12 in 10.0 mi SSE 9.2 mph - N/A   Clear
4:53 PM 54.0 °F - 37.0 °F 53% 30.12 in 10.0 mi SE 4.6 mph - N/A   Clear
5:53 PM 51.1 °F - 37.0 °F 59% 30.12 in 10.0 mi SSE 5.8 mph - N/A   Clear
6:53 PM 50.0 °F - 36.0 °F 59% 30.12 in 10.0 mi SE 6.9 mph - N/A   Clear
7:53 PM 48.9 °F - 37.0 °F 64% 30.11 in 10.0 mi SSE 9.2 mph - N/A   Clear
8:53 PM 48.9 °F - 37.0 °F 64% 30.10 in 10.0 mi SSE 9.2 mph - N/A   Clear
9:53 PM 48.0 °F - 37.0 °F 66% 30.10 in 10.0 mi SSE 6.9 mph - N/A   Clear
10:53 PM 46.9 °F - 37.0 °F 68% 30.10 in 10.0 mi South 8.1 mph - N/A   Clear
11:53 PM 46.9 °F - 37.9 °F 71% 30.11 in 10.0 mi South 6.9 mph - N/A   Clear